{"data":{"norad_id":58382,"intl_designator":"2023-178J","name":"STARLINK-30927","alt_names":[],"object_type":"PAYLOAD","status":"ACTIVE","operator":null,"country":"US","launch_date":"2023-11-20","launch_site_code":"AFWTR","launch_vehicle":null,"mission":null,"orbit_class":"UNKNOWN","rcs_meters":null,"size_class":null,"mass_kg":null,"dimensions":null,"purposes":["comms"],"wikipedia_slug":null,"has_3d_model":false,"image_url":null,"decayed_at":null,"tle_current":{"epoch":"2026-09-20T11:37:27.228288Z","epoch_age_seconds":145039,"freshness":"FRESH","line1":"1 58382U 23178J   26263.48434292  .00000777  00000+0  34136-4 0  9993","line2":"2 58382  53.1594 172.1411 0001056  87.4113 272.7011 15.34387686159756","mean_motion":15.34387686,"eccentricity":0.0001056,"inclination_deg":53.1594,"raan_deg":172.1411,"arg_perigee_deg":87.4113,"mean_anomaly_deg":272.7011,"bstar":3.4136e-5,"rev_number":15975,"period_min":93.848511242549,"perigee_km":462.0174436606,"apogee_km":463.46223684926,"semimajor_km":6840.8768402549,"source":"CELESTRAK","updated_at":"2026-09-21T09:00:33.866459Z"}}}